[[{"header":{"parameterUnit":"m.s-1","parameterCategory":1,"la1":30.2991,"la2":30.254,"lo1":-89.0895,"lo2":-89.0444,"dy":0.0017,"dx":0.0017,"nx":28,"ny":28,"refTime":"2025-03-23T21:00:00:Z","depth":0,"parameterNumber":2,"parameterNumberName":"U-component_of_WINDS"},"data":[0,0,0,0,0,0,0,0,0,0,0,0,0,0,0,0,0,0,0,0,0,0,0,0,0,0,0,0,0,0,0,0,0,0,0,0,0,0,0,0,0,0,0,0,0,0,0,0,0,0,0,0,0,0,0,0,0,0,-2.0462,-2.0462,0,-2.0482,-2.0482,-2.0482,-2.0472,-2.0472,-2.0471,-2.0471,-2.049,-2.0491,-2.0492,0,0,0,0,0,0,0,0,0,0,0,0,0,-2.0416,-2.0416,-2.0462,-2.0462,-2.0463,-2.0482,-2.0482,-2.0482,-2.0472,-2.0472,-2.0471,-2.0471,-2.0489,-2.0491,-2.0492,0,0,0,0,0,0,0,0,0,0,0,0,0,-2.0435,-2.0417,-2.0462,-2.046,-2.046,-2.0482,-2.0482,-2.0482,-2.0473,-2.0472,-2.0471,-2.047,-2.0489,-2.049,-2.0492,-2.0516,0,0,-2.0496,-2.0497,0,0,0,0,0,0,0,0,-2.0434,-2.0437,-2.046,-2.046,-2.046,-2.0474,-2.0472,-2.0494,-2.0473,-2.0468,-2.0471,-2.047,-2.0485,-2.0487,-2.0492,-2.0517,-2.0518,-2.0496,-2.0497,-2.0498,-2.0498,0,0,0,0,0,0,0,-2.0433,-2.0436,-2.047,-2.046,-2.0461,-2.0458,-2.046,-2.0476,-2.048,-2.0468,-2.0468,-2.047,-2.0485,-2.0491,-2.0492,-2.0518,-2.0496,-2.0498,-2.0499,-2.0499,-2.0563,-2.0564,0,0,0,0,0,0,-2.0432,-2.0435,-2.0469,-2.047,-2.0445,-2.0459,-2.0462,-2.047,-2.048,-2.0481,-2.0471,-2.047,-2.0489,-2.0491,-2.0493,-2.0521,-2.0498,-2.0499,-2.05,-2.0563,-2.0564,-2.0564,0,0,0,0,0,0,-2.0431,-2.0435,-2.0468,-2.0453,-2.0457,-2.0461,-2.0471,-2.0471,-2.0477,-2.0482,-2.0483,-2.0476,-2.0488,-2.0491,-2.051,-2.0522,-2.05,-2.0501,-2.0562,-2.0563,-2.0564,-2.0578,0,0,0,0,0,0,-2.043,-2.0435,-2.0444,-2.0453,-2.0458,-2.0486,-2.0472,-2.0472,-2.0479,-2.0478,-2.0487,-2.0488,-2.0488,-2.0508,-2.0512,-2.0523,-2.0502,-2.056,-2.0562,-2.0564,-2.0577,-2.058,-2.0583,0,0,0,0,0,-2.0428,-2.0447,-2.0445,-2.0449,-2.0469,-2.0486,-2.0489,-2.0489,-2.048,-2.049,-2.0493,-2.0488,-2.052,-2.051,-2.0514,-2.0526,-2.056,-2.0562,-2.0563,-2.0576,-2.0579,-2.0583,0,0,0,0,0,0,-2.0439,-2.0448,-2.0445,-2.0468,-2.0477,-2.0485,-2.0496,-2.0493,-2.0503,-2.0502,-2.0501,-2.0503,-2.0523,-2.0527,-2.0515,-2.055,-2.0539,-2.0541,-2.0547,-2.055,-2.0553,-2.0551,-2.0504,0,0,0,0,0,-2.0444,-2.0458,-2.0465,-2.0484,-2.0489,-2.0492,-2.0499,-2.0498,-2.0507,-2.051,-2.0515,-2.0523,-2.0535,-2.0543,-2.0555,-2.0578,-2.0579,-2.0588,-2.0591,-2.0594,-2.0595,-2.0607,-2.0611,-2.0571,-2.0571,-2.057,0,0,-2.0455,-2.0462,-2.047,-2.0487,-2.0493,-2.0506,-2.0495,-2.051,-2.0519,-2.0512,-2.0531,-2.0535,-2.0544,-2.0565,-2.0575,-2.0569,-2.0607,-2.0596,-2.0598,-2.0598,-2.061,-2.0614,-2.0617,-2.0572,-2.0572,-2.0571,0,0,-2.0481,-2.0488,-2.0504,-2.0511,-2.0521,-2.0523,-2.0527,-2.0536,-2.0538,-2.0557,-2.0552,-2.0564,-2.0585,-2.0591,-2.0597,-2.0626,-2.0621,-2.063,-2.0645,-2.0656,-2.066,-2.0662,-2.0672,-2.0675,-2.0633,-2.0633,-2.0633,0,-2.0492,-2.0513,-2.0513,-2.0528,-2.0535,-2.0531,-2.0547,-2.0553,-2.0567,-2.0572,-2.0565,-2.0592,-2.0597,-2.062,-2.0627,-2.0632,-2.0636,-2.0628,-2.0659,-2.0662,-2.0665,-2.0673,-2.0677,-2.0633,-2.0633,-2.0633,-2.0633,0,-2.0526,-2.054,-2.0552,-2.0565,-2.0574,-2.059,-2.0592,-2.0601,-2.06,-2.0603,-2.0622,-2.0629,-2.0641,-2.0647,-2.0646,-2.0669,-2.0665,-2.0659,-2.0647,-2.0669,-2.0678,-2.0681,-2.0635,-2.0634,-2.0634,-2.0634,0,0,-2.0558,-2.0572,-2.0576,-2.0582,-2.0593,-2.0604,-2.0619,-2.0632,-2.0639,-2.0649,-2.0661,-2.0679,-2.0674,-2.0681,-2.0681,-2.0691,-2.0712,-2.0684,-2.0684,-2.0688,-2.0738,-2.0741,-2.0745,-2.071,-2.0711,-2.0711,-2.0737,0,-2.0584,-2.0611,-2.0612,-2.0637,-2.0649,-2.0646,-2.0659,-2.0667,-2.067,-2.0681,-2.0685,-2.0697,-2.069,-2.0694,-2.0704,-2.0708,-2.0722,-2.0706,-2.072,-2.0721,-2.0717,-2.075,-2.0753,-2.0777,-2.074,-2.0741,-2.0741,0,-2.0617,-2.0628,-2.0654,-2.0663,-2.0668,-2.068,-2.0692,-2.0703,-2.0712,-2.0714,-2.0722,-2.072,-2.0735,-2.0724,-2.0745,-2.0734,-2.074,-2.0743,-2.0744,-2.0744,-2.0731,-2.075,-2.0785,-2.0788,-2.0746,-2.0746,-2.0745,0,-2.0637,-2.0658,-2.0676,-2.0681,-2.0693,-2.0701,-2.0706,-2.0714,-2.0722,-2.0732,-2.0737,-2.0749,-2.0755,-2.0765,-2.0766,-2.0758,-2.0787,-2.0776,-2.0788,-2.0787,-2.0793,-2.0792,-2.0828,-2.0799,-2.0799,-2.0799,-2.0799,0,-2.0665,-2.068,-2.0685,-2.0696,-2.0713,-2.0715,-2.0732,-2.0736,-2.0744,-2.0755,-2.0753,-2.0764,-2.0766,-2.0777,-2.0778,-2.0795,-2.0798,-2.0799,-2.0799,-2.0798,-2.0798,-2.0801,-2.0799,-2.08,-2.08,-2.0799,-2.0799,0,-2.0689,-2.0692,-2.0712,-2.0721,-2.0724,-2.0736,-2.0744,-2.0754,-2.0758,-2.0772,-2.0776,-2.0781,-2.0794,-2.0797,-2.0812,-2.0813,-2.0832,-2.0831,-2.0829,-2.0829,-2.084,-2.0838,-2.0878,-2.0883,-2.0852,-2.0852,-2.0853,0,-2.0705,-2.0718,-2.0728,-2.0736,-2.0742,-2.0754,-2.0762,-2.0764,-2.0772,-2.0783,-2.0792,-2.0805,-2.0815,-2.0836,-2.0841,-2.0853,-2.0851,-2.0864,-2.0853,-2.0852,-2.085,-2.0849,-2.0849,-2.0866,-2.0866,-2.0867,-2.0867,0,-2.0735,-2.0736,-2.0747,-2.076,-2.0769,-2.0779,-2.0788,-2.0794,-2.0797,-2.0807,-2.082,-2.0828,-2.0844,-2.0857,-2.0868,-2.0873,-2.087,-2.0871,-2.0874,-2.0873,-2.0871,-2.0871,-2.0834,-2.0869,-2.0869,-2.0869,-2.0869,-2.0869,-2.0755,-2.0765,-2.0774,-2.0787,-2.0794,-2.0803,-2.0813,-2.0818,-2.0829,-2.0842,-2.0843,-2.0857,-2.0866,-2.0882,-2.0888,-2.0899,-2.0894,-2.0899,-2.09,-2.0901,-2.0901,-2.087,-2.0901,-2.0901,-2.0901,-2.0901,-2.0901,0,-2.0783,-2.0789,-2.0801,-2.0814,-2.0824,-2.0821,-2.0831,-2.0839,-2.0852,-2.0861,-2.0871,-2.0886,-2.0899,-2.0905,-2.0917,-2.0924,-2.0923,-2.0927,-2.0926,-2.0927,-2.0905,-2.0901,-2.0928,-2.0928,-2.0928,-2.0928,-2.0928,-2.0928,-2.0799,-2.0816,-2.0818,-2.0839,-2.0845,-2.0859,-2.0865,-2.0872,-2.0879,-2.0896,-2.0907,-2.0911,-2.0918,-2.0931,-2.0942,-2.0943,-2.0947,-2.0952,-2.0953,-2.0932,-2.0929,-2.0926,-2.0922,-2.0953,-2.0953,-2.0973,-2.0974,-2.0974]},{"header":{"parameterUnit":"m.s-1","parameterCategory":1,"la1":30.2991,"la2":30.254,"lo1":-89.0895,"lo2":-89.0444,"dy":0.0017,"dx":0.0017,"nx":28,"ny":28,"refTime":"2025-03-23T21:00:00:Z","depth":0,"parameterNumber":3,"parameterNumberName":"V-component_of_WINDS"},"data":[0,0,0,0,0,0,0,0,0,0,0,0,0,0,0,0,0,0,0,0,0,0,0,0,0,0,0,0,0,0,0,0,0,0,0,0,0,0,0,0,0,0,0,0,0,0,0,0,0,0,0,0,0,0,0,0,0,0,4.5643,4.5642,0,4.5621,4.562,4.562,4.5576,4.5576,4.5575,4.5574,4.5549,4.5549,4.555,0,0,0,0,0,0,0,0,0,0,0,0,0,4.5647,4.5647,4.5643,4.5642,4.5642,4.5621,4.562,4.562,4.5577,4.5576,4.5575,4.5574,4.5549,4.5549,4.555,0,0,0,0,0,0,0,0,0,0,0,0,0,4.5637,4.5647,4.5643,4.5618,4.5616,4.5621,4.562,4.562,4.5577,4.5576,4.5574,4.5573,4.5549,4.5549,4.555,4.5576,0,0,4.555,4.555,0,0,0,0,0,0,0,0,4.5637,4.5637,4.5622,4.562,4.5617,4.56,4.5613,4.5605,4.5577,4.5591,4.5574,4.5572,4.5567,4.5566,4.5564,4.5575,4.5574,4.555,4.555,4.5551,4.5551,0,0,0,0,0,0,0,4.5638,4.5637,4.5634,4.5622,4.5619,4.5608,4.5605,4.5611,4.5587,4.559,4.5587,4.5585,4.5565,4.5564,4.5563,4.5574,4.555,4.555,4.5551,4.5551,4.5608,4.5609,0,0,0,0,0,0,4.5643,4.5638,4.5634,4.5633,4.5624,4.5609,4.5606,4.5607,4.5586,4.5582,4.5586,4.5583,4.5565,4.5563,4.5562,4.5594,4.5551,4.5551,4.5551,4.5606,4.5608,4.5609,0,0,0,0,0,0,4.5643,4.5643,4.5635,4.5635,4.5633,4.561,4.5612,4.5607,4.5606,4.5583,4.5579,4.5589,4.5563,4.5562,4.5574,4.5592,4.5551,4.5551,4.5605,4.5607,4.5609,4.5656,0,0,0,0,0,0,4.5643,4.5643,4.5653,4.5635,4.5633,4.5648,4.5613,4.5607,4.5606,4.5602,4.5585,4.5581,4.5562,4.5574,4.5574,4.5592,4.5551,4.5603,4.5606,4.5608,4.5653,4.5659,4.5665,0,0,0,0,0,4.5644,4.5666,4.5654,4.5654,4.5645,4.5649,4.5647,4.5626,4.5608,4.5618,4.5604,4.5582,4.559,4.5575,4.5575,4.5593,4.5602,4.5605,4.5608,4.565,4.5658,4.5665,0,0,0,0,0,0,4.5685,4.5663,4.5649,4.5667,4.566,4.5641,4.5653,4.5635,4.5632,4.5628,4.5601,4.5598,4.5613,4.5604,4.5588,4.5619,4.5593,4.5596,4.5624,4.5632,4.5638,4.564,4.5551,0,0,0,0,0,4.5697,4.5702,4.5682,4.57,4.5697,4.5676,4.5676,4.5661,4.5652,4.5649,4.5635,4.5628,4.5629,4.563,4.5629,4.5651,4.5647,4.5664,4.567,4.5675,4.5678,4.5691,4.5698,4.562,4.562,4.562,0,0,4.572,4.5709,4.5713,4.5708,4.5701,4.5707,4.5674,4.5681,4.5685,4.5649,4.566,4.5651,4.564,4.5658,4.5665,4.5651,4.5699,4.5679,4.5684,4.5684,4.5695,4.5702,4.5709,4.5622,4.5621,4.5621,0,0,4.5766,4.5758,4.5772,4.5766,4.5756,4.5742,4.5746,4.573,4.5723,4.5734,4.5708,4.5712,4.5714,4.5708,4.5706,4.5752,4.5732,4.5752,4.5785,4.5798,4.5804,4.5809,4.5827,4.5833,4.5756,4.5756,4.5756,0,4.5796,4.5804,4.5782,4.5791,4.579,4.576,4.5775,4.577,4.576,4.576,4.5745,4.5748,4.5739,4.5755,4.5767,4.5765,4.5769,4.5754,4.5805,4.581,4.5815,4.5831,4.5838,4.5758,4.5758,4.5758,4.5757,0,4.5842,4.5849,4.5862,4.5855,4.5855,4.5867,4.5846,4.5849,4.5834,4.5822,4.5834,4.5822,4.582,4.5822,4.5807,4.5837,4.5829,4.581,4.5782,4.5825,4.584,4.5846,4.5762,4.5761,4.576,4.576,0,0,4.5913,4.5895,4.59,4.5897,4.5885,4.5889,4.59,4.5899,4.5903,4.5897,4.5906,4.591,4.5893,4.589,4.5873,4.5884,4.5924,4.5864,4.5863,4.5876,4.5958,4.5973,4.5981,4.591,4.5911,4.5912,4.5959,0,4.5956,4.5975,4.5956,4.5979,4.5985,4.5957,4.5967,4.5961,4.595,4.5954,4.5942,4.5945,4.5921,4.592,4.5929,4.5917,4.594,4.5913,4.5919,4.5919,4.5923,4.5988,4.6004,4.6049,4.5965,4.5966,4.5966,0,4.6009,4.6008,4.6032,4.602,4.6022,4.6031,4.603,4.6033,4.6026,4.6017,4.6016,4.5996,4.6007,4.5981,4.5995,4.5978,4.5979,4.5973,4.5975,4.5975,4.5946,4.5991,4.6062,4.6069,4.5975,4.5974,4.5974,0,4.606,4.6064,4.6079,4.6077,4.6064,4.6071,4.6066,4.6057,4.6058,4.6057,4.6057,4.6057,4.6056,4.6056,4.6038,4.602,4.6055,4.6027,4.6049,4.605,4.6058,4.6058,4.6131,4.6058,4.6058,4.6057,4.6057,0,4.611,4.6126,4.6102,4.6111,4.6129,4.6107,4.6125,4.6116,4.6109,4.6117,4.6092,4.61,4.6075,4.608,4.6066,4.6081,4.608,4.6074,4.607,4.6077,4.6078,4.6077,4.6074,4.6059,4.6059,4.6058,4.6058,0,4.617,4.6154,4.6169,4.6155,4.6152,4.6166,4.6154,4.6163,4.6151,4.6161,4.6162,4.6144,4.6149,4.613,4.6131,4.6122,4.6145,4.6135,4.6148,4.6145,4.6169,4.6167,4.6245,4.6255,4.6175,4.6175,4.6176,0,4.6203,4.6215,4.6204,4.6208,4.6204,4.621,4.6212,4.6191,4.6194,4.6188,4.6197,4.62,4.6201,4.621,4.6197,4.6198,4.6189,4.6217,4.6189,4.6196,4.6191,4.6191,4.6193,4.6222,4.6223,4.6224,4.6225,0,4.6265,4.6258,4.6261,4.6263,4.6266,4.6265,4.6264,4.6268,4.6246,4.625,4.6256,4.6257,4.6259,4.6263,4.6262,4.6256,4.6237,4.6234,4.6239,4.6246,4.6253,4.6251,4.6164,4.6232,4.6231,4.6231,4.623,4.623,4.6313,4.6323,4.6318,4.6323,4.632,4.6319,4.6327,4.6317,4.6322,4.6323,4.631,4.6319,4.6312,4.6309,4.6306,4.6312,4.6299,4.6306,4.6308,4.6311,4.6316,4.6252,4.6311,4.6311,4.6311,4.6311,4.6311,0,4.6375,4.6371,4.6376,4.6375,4.638,4.6362,4.636,4.6365,4.6373,4.6369,4.6372,4.6379,4.6383,4.637,4.6373,4.638,4.6372,4.6382,4.6381,4.638,4.6326,4.6322,4.6389,4.6389,4.6389,4.6388,4.6388,4.6388,4.6408,4.6425,4.6417,4.6432,4.6427,4.6436,4.6436,4.6436,4.6433,4.6442,4.6446,4.6438,4.6431,4.6433,4.6436,4.6433,4.6435,4.6448,4.6442,4.6391,4.6384,4.6377,4.6373,4.6449,4.6449,4.6496,4.6496,4.6496]}]]